Terminal Aerodrome Forecast
Issued by NWS Blacksburg, VA

Current Version | Previous Version | Graphics & Text | Print | Product List | Glossary On
Versions: 1 2 3 4 5 6 7 8 9 10 11 12 13 14 15 16 17 18 19 20 21 22 23 24 25 26 27
000
FTUS41 KRNK 041122
TAFBLF
TAF
KBLF 041122Z 0412/0512 25007KT P6SM SCT030 SCT070
     FM041400 28010G18KT P6SM SCT040
     FM042200 28008KT P6SM BKN050
     FM050200 26004KT P6SM SCT070 BKN250=

USA.gov is the U.S. government's official web portal to all federal, state and local government web resources and services.